Regional Weather Roundup
Issued by NWS Spokane, WA

Home | Current Version | Previous Version | Text Only | Print | Product List | Glossary On
Versions: 1 2 3 4 5 6 7 8 9 10 11 12 13 14 15 16 17 18 19 20 21 22 23 24 25 26 27 28 29 30 31 32 33 34 35 36 37 38 39 40 41 42 43 44 45 46 47 48 49 50
999
NZUS01 KOTX 130757
RWROTX
EASTERN WASHINGTON/NORTHERN IDAHO ROUNDUP
NATIONAL WEATHER SERVICE, SPOKANE WA
1200 AM PST SAT FEB 13 2016

Note: "fair" indicated few or no clouds below 12,000 feet with no
significant weather and/or obstructions to visibility.

...NORTHEAST WASHINGTON AND NORTHERN IDAHO PANHANDLE...

CITY           SKY/WX    TMP DP  RH WIND       PRES   REMARKS
SPOKANE INTL   CLOUDY    42  40  92 SW23      30.08F
SPOKANE DOWNTO CLOUDY    44  40  85 W7        30.11S
DEER PARK      CLOUDY    39  36  89 SW10      30.11R

...SOUTHEAST WASHINGTON AND SOUTHERN IDAHO PANHANDLE...

CITY           SKY/WX    TMP DP  RH WIND       PRES   REMARKS
WALLA WALLA    CLOUDY    47  41  80 S15       30.18S
PULLMAN/MOSCOW CLOUDY    42  39  89 CALM      30.15S
LOWELL           N/A     41  39  93 CALM      30.18R

...COLUMBIA BASIN...

CITY           SKY/WX    TMP DP  RH WIND       PRES   REMARKS
EPHRATA        FOG       36  36 100 NW3       30.12S VSB 1/4
MOSES LAKE     CLOUDY    39  38  96 CALM      30.13F FOG
TRI CITIES     PTCLDY    47  41  80 SW16      30.18S
HERMISTON      CLOUDY    47  41  80 SW9       30.20R
PENDLETON      CLOUDY    44  39  82 S8        30.20S

...EAST SLOPES CASCADES...

CITY           SKY/WX    TMP DP  RH WIND       PRES   REMARKS
THE DALLES     CLEAR     42  40  92 SW5       30.24R
YAKIMA         FOG       40  37  89 W6        30.18S VSB 3/4
ELLENSBURG     FOG       32  30  92 SE3       30.15R VSB 1/4
WENATCHEE      CLOUDY    38  36  92 CALM      30.13R FOG
OMAK           CLOUDY    36  35  96 CALM      30.12R FOG

...SOUTHERN BRITISH COLUMBIA...

CITY           SKY/WX    TMP DP  RH WIND       PRES   REMARKS
CRANBROOK      LGT RAIN  36  32  87 VRB5      29.93F

...WESTERN MONTANA...

CITY           SKY/WX    TMP DP  RH WIND       PRES   REMARKS
MISSOULA       FOG       32  31  96 W5        30.03S VSB 1/4 WCI  27

...NEIGHBORING CITIES...

CITY           SKY/WX    TMP DP  RH WIND       PRES   REMARKS
SEATTLE        CLOUDY    48  41  76 S8        30.20R



USA.gov is the U.S. government's official web portal to all federal, state and local government web resources and services.